Location: Chandler
(33.3060°N, 111.8410°W)
Time: 17:28:10
(UTC-07:00)

Amateur Radio Satellites - All Passes

Search period start: 16 December 2017 16:58
Search period end: 17 December 2017 16:58
Location: Chandler, 33.3060°N, 111.8410°W

Satellite Date Start Highest point End Downlink Frequencies (MHz)
Time Altitude Azimuth
NUDT-PHONESAT 16 Dec 17:04:34 17:06:01 12° 69° (ENE) 17:07:28 437.300
XW-2D 16 Dec 17:08:26 17:11:25 22° 72° (ENE) 17:14:25 145.860 - 145.880
KAITUO 1B 16 Dec 17:11:24 17:13:46 16° 70° (ENE) 17:16:09 145.475/437.950
CUTE-I 16 Dec 17:22:25 17:27:13 34° 70° (ENE) 17:31:59 437.470
PCSat 16 Dec 17:22:33 17:26:53 25° 107° (ESE) 17:31:13 145.827
ITUPSAT 1 16 Dec 17:22:35 17:24:40 13° 295° (WNW) 17:26:45 437.325
XW-2B 16 Dec 17:23:54 17:27:19 34° 74° (ENE) 17:30:47 145.730 - 145.750
DOVE 4 16 Dec 17:32:15 17:36:47 29° 264° (W) 17:41:15 437.250
XW-2F 16 Dec 17:33:45 17:37:18 43° 75° (ENE) 17:40:55 145.980 - 146.000
nSIGHT-1 16 Dec 17:34:32 17:37:30 34° 39° (NE) 17:40:28 .
CUBESAT XI-V 16 Dec 17:40:33 17:43:59 20° 291° (WNW) 17:47:24 437.345
CUTE 1.7 + AOD 2 16 Dec 17:40:47 17:42:54 14° 68° (ENE) 17:45:02 437.475
KKS-1 16 Dec 17:43:35 17:48:00 77° 102° (ESE) 17:52:24 437.445
XW-2C 16 Dec 17:51:02 17:54:48 87° 80° (E) 17:58:38 145.795 - 145.815
STARS 16 Dec 18:19:59 18:24:21 75° 103° (ESE) 18:28:41 437.465
ISS 16 Dec 18:24:31 18:27:48 86° 222° (SW) 18:31:04 437.550
HO-68 16 Dec 18:24:55 18:31:59 64° 71° (ENE) 18:39:05 435.675
O/OREOS (USA 219) 16 Dec 18:25:49 18:30:19 80° 71° (ENE) 18:34:46 437.305
LilacSat-2 16 Dec 18:31:12 18:34:19 24° 264° (W) 18:37:27 437.200
NUDT-PHONESAT 16 Dec 18:36:08 18:39:29 33° 262° (W) 18:42:51 437.300
XW-2A 16 Dec 18:37:08 18:37:54 11° 69° (ENE) 18:38:40 145.665 - 145.685
RS-15 16 Dec 18:40:20 18:45:10 13° 344° (NNW) 18:49:56 29.354- 29.394
XW-2D 16 Dec 18:42:51 18:45:29 18° 265° (W) 18:48:08 145.860 - 145.880
KAITUO 1B 16 Dec 18:44:23 18:47:29 25° 264° (W) 18:50:37 145.475/437.950
UWE-3 16 Dec 18:46:03 18:49:24 24° 71° (ENE) 18:52:44 435.000/436.395/437.385
SEEDS 16 Dec 18:46:35 18:50:39 49° 75° (ENE) 18:54:45 437.485
CUBEBUG 2 16 Dec 18:50:30 18:54:37 54° 76° (ENE) 18:58:40 437.445
STRAND 1 16 Dec 18:58:22 19:02:03 20° 95° (E) 19:05:44 437.568
AAUSAT CUBESAT 2 16 Dec 18:58:52 19:02:23 27° 72° (ENE) 19:05:55 437.432
XW-2B 16 Dec 19:00:09 19:01:34 12° 267° (W) 19:02:59 145.730 - 145.750
CUTE-I 16 Dec 19:02:53 19:07:12 25° 264° (W) 19:11:33 437.470
BEESAT 3 16 Dec 19:04:31 19:08:10 37° 114° (ESE) 19:11:53 437.485
PCSat 16 Dec 19:05:05 19:10:01 36° 301° (WNW) 19:15:00 145.827
ZACube-1 16 Dec 19:06:03 19:09:06 20° 70° (ENE) 19:12:10 437.345
nSIGHT-1 16 Dec 19:11:28 19:13:28 16° 233° (SW) 19:15:28 .
CUTE 1.7 + AOD 2 16 Dec 19:14:19 19:18:19 40° 262° (W) 19:22:21 437.475
Oscar 11 16 Dec 19:21:39 19:24:35 18° 69° (ENE) 19:27:32 .
AO-73 16 Dec 19:37:32 19:41:25 43° 74° (ENE) 19:45:20 145.935
BEESAT 2 16 Dec 19:50:24 19:53:55 31° 112° (ESE) 19:57:30 435.950
FALCONSAT 3 16 Dec 19:55:11 19:57:33 16° 149° (SSE) 19:59:56 435.103
XW-2A 16 Dec 20:07:18 20:10:14 29° 262° (W) 20:13:12 145.665 - 145.685
FO-29 16 Dec 20:08:28 20:14:14 33° 95° (E) 20:19:23 435.910
HO-68 16 Dec 20:15:08 20:20:04 20° 266° (W) 20:25:03 435.675
UWE-3 16 Dec 20:22:39 20:25:45 20° 264° (W) 20:28:51 435.000/436.395/437.385
SEEDS 16 Dec 20:25:53 20:26:33 10° 268° (W) 20:27:12 437.485
AAUSAT CUBESAT 2 16 Dec 20:34:47 20:37:46 19° 265° (W) 20:40:45 437.432
STRAND 1 16 Dec 20:36:37 20:41:18 38° 288° (WNW) 20:45:57 437.568
ZACube-1 16 Dec 20:41:51 20:45:12 24° 264° (W) 20:48:34 437.345
BEESAT 3 16 Dec 20:43:23 20:45:49 16° 308° (NW) 20:48:16 437.485
Max Valier Satellite 16 Dec 20:52:55 20:55:45 22° 72° (ENE) 20:58:37 145.860
Oscar 11 16 Dec 20:56:39 21:00:26 30° 263° (W) 21:04:17 .
RS-15 16 Dec 20:59:10 21:05:32 15° 24° (NNE) 21:11:42 29.354- 29.394
AO-85 16 Dec 21:08:43 21:12:27 53° 115° (ESE) 21:16:22 145.980
DELFI C3 16 Dec 21:12:15 21:16:12 68° 77° (ENE) 21:20:11 145.870
EO-88 16 Dec 21:14:46 21:17:54 28° 73° (ENE) 21:21:03 145.990 - 145.960
AO-73 16 Dec 21:16:41 21:17:50 11° 268° (W) 21:18:59 145.935
BEESAT 2 16 Dec 21:28:49 21:31:39 18° 307° (NW) 21:34:32 435.950
FALCONSAT 3 16 Dec 21:32:37 21:36:16 65° 161° (SSE) 21:39:56 435.103
FO-29 16 Dec 21:53:26 21:59:10 32° 293° (WNW) 22:04:20 435.910
PRISM 16 Dec 22:04:33 22:06:46 14° 94° (E) 22:08:57 437.425
TIGRISAT 16 Dec 22:05:42 22:10:03 62° 101° (E) 22:14:29 435.000
UNISAT 6 16 Dec 22:09:39 22:14:04 78° 103° (ESE) 22:18:32 437.425
Max Valier Satellite 16 Dec 22:27:03 22:29:28 17° 265° (W) 22:31:55 145.860
EO-88 16 Dec 22:49:48 22:51:32 13° 266° (W) 22:53:17 145.990 - 145.960
AO-85 16 Dec 22:51:58 22:53:13 11° 313° (NW) 22:54:29 145.980
SO-50 16 Dec 22:53:26 22:54:27 11° 46° (NE) 22:55:29 436.795
LO-87 16 Dec 23:10:07 23:13:38 69° 259° (W) 23:17:09 145.935 - 145.965
RS-15 16 Dec 23:10:34 23:21:54 50° 53° (NE) 23:32:35 29.354- 29.394
FALCONSAT 3 16 Dec 23:11:45 23:15:24 61° 356° (N) 23:19:03 435.103
VELOX 1 16 Dec 23:15:54 23:16:10 10° 65° (ENE) 23:16:26 145.980
ESTCUBE 1 16 Dec 23:25:30 23:30:00 71° 259° (W) 23:34:31 437.505/2401.250
SPROUT 16 Dec 23:33:15 23:36:51 28° 72° (ENE) 23:40:28 437.525
NANOSAT C BR1 16 Dec 23:36:03 23:38:49 17° 95° (E) 23:41:36 145.865
AIST 2D 16 Dec 23:37:06 23:40:39 85° 101° (ESE) 23:44:11 435.315
PRISM 16 Dec 23:38:24 23:42:05 33° 287° (WNW) 23:45:44 437.425
EO-79 16 Dec 23:52:17 23:56:03 31° 98° (E) 23:59:48 145.935-145.965
POLYITAN 1 17 Dec 00:15:39 00:19:51 63° 101° (ESE) 00:24:03 437.675
SO-50 17 Dec 00:30:47 00:35:30 87° 245° (WSW) 00:40:15 436.795
QB50P2 17 Dec 00:41:40 00:45:47 52° 285° (WNW) 00:49:54 145.880/145.840
DUCHIFAT 1 17 Dec 00:42:24 00:46:36 80° 285° (WNW) 00:50:48 145.980
VELOX 1 17 Dec 00:47:37 00:52:01 62° 259° (W) 00:56:26 145.980
FALCONSAT 3 17 Dec 00:50:57 00:54:38 80° 12° (NNE) 00:58:19 435.103
Oscar 19 17 Dec 01:01:16 01:04:59 20° 95° (E) 01:08:41 437.125/150
50 SAT 17 Dec 01:03:15 01:06:02 29° 74° (ENE) 01:08:50 437.505
SPROUT 17 Dec 01:09:40 01:12:41 19° 265° (W) 01:15:42 437.525
NANOSAT C BR1 17 Dec 01:10:50 01:14:31 30° 288° (WNW) 01:18:12 145.865
BUGSAT 1 17 Dec 01:12:41 01:16:36 45° 100° (E) 01:20:31 437.445
UKube-1 17 Dec 01:14:23 01:18:03 28° 71° (ENE) 01:21:45 .
RS-15 17 Dec 01:23:30 01:33:57 42° 253° (WSW) 01:43:58 29.354- 29.394
EO-79 17 Dec 01:28:47 01:31:31 17° 291° (WNW) 01:34:15 145.935-145.965
DX 1 17 Dec 01:34:57 01:39:20 88° 75° (ENE) 01:43:43 434.975-435.025
Gurwin Techsat 1B 17 Dec 02:02:57 02:08:13 61° 101° (E) 02:13:27 435.225
JUGNU 17 Dec 02:03:45 02:06:39 14° 166° (SSE) 02:09:34 437.505
BEESAT 17 Dec 02:16:15 02:19:41 20° 68° (ENE) 02:23:06 436.000
AO-91 17 Dec 02:18:28 02:21:44 45° 284° (WNW) 02:24:59 145.960
YUBILEINY 17 Dec 02:18:29 02:26:21 38° 87° (E) 02:34:16 435.215
FALCONSAT 3 17 Dec 02:30:15 02:33:35 32° 205° (SSW) 02:36:53 435.103
AO-7 17 Dec 02:35:57 02:41:36 19° 95° (E) 02:47:13 .
Oscar 19 17 Dec 02:39:33 02:44:22 40° 288° (WNW) 02:49:12 437.125/150
ITUPSAT 1 17 Dec 02:45:16 02:49:41 40° 72° (ENE) 02:54:08 437.325
BUGSAT 1 17 Dec 02:50:15 02:51:30 11° 293° (WNW) 02:52:45 437.445
UKube-1 17 Dec 02:50:52 02:54:01 20° 264° (W) 02:57:10 .
CUBESAT XI-V 17 Dec 03:02:19 03:05:44 21° 69° (ENE) 03:09:10 437.345
MOZHAYETS 4 17 Dec 03:07:35 03:12:06 72° 259° (W) 03:16:40
M-CUBED/EXP-1 PRIME 17 Dec 03:30:50 03:34:28 26° 100° (E) 03:37:53 437.505
Gurwin Techsat 1B 17 Dec 03:44:50 03:47:34 14° 296° (WNW) 03:50:18 435.225
JUGNU 17 Dec 03:50:44 03:54:58 21° 176° (S) 03:59:14 437.505
BEESAT 17 Dec 03:52:53 03:57:09 34° 262° (W) 04:01:28 436.000
PCSat 17 Dec 03:56:27 04:01:53 75° 64° (ENE) 04:07:16 145.827
ITAMSAT 1 17 Dec 03:57:20 04:02:23 54° 101° (E) 04:07:26 435.822/435.867
YUBILEINY 17 Dec 04:14:54 04:22:58 40° 284° (WNW) 04:31:07 435.215
ITUPSAT 1 17 Dec 04:24:41 04:27:37 16° 266° (W) 04:30:35 437.325
AO-7 17 Dec 04:26:34 04:34:54 74° 290° (WNW) 04:43:14 .
KKS-1 17 Dec 04:37:18 04:41:28 41° 73° (ENE) 04:45:40 437.445
CUBESAT XI-V 17 Dec 04:38:42 04:42:50 32° 263° (W) 04:47:02 437.345
SRMSAT 17 Dec 04:44:48 04:47:27 13° 165° (SSE) 04:50:05 437.500
BEESAT 3 17 Dec 05:01:48 05:05:43 84° 62° (ENE) 05:09:33 437.485
M-CUBED/EXP-1 PRIME 17 Dec 05:05:15 05:08:38 22° 296° (WNW) 05:11:51 437.505
STARS 17 Dec 05:12:18 05:16:20 37° 73° (ENE) 05:20:24 437.465
XW-2C 17 Dec 05:29:22 05:30:57 12° 93° (E) 05:32:31 145.795 - 145.815
NO-84 17 Dec 05:33:56 05:36:47 74° 311° (NW) 05:39:49 435.350 FM
DOVE 4 17 Dec 05:35:06 05:39:26 67° 284° (WNW) 05:43:34 437.250
ITAMSAT 1 17 Dec 05:38:25 05:41:20 15° 295° (WNW) 05:44:15 435.822/435.867
JUGNU 17 Dec 05:39:11 05:43:21 20° 186° (S) 05:47:31 437.505
PCSat 17 Dec 05:43:14 05:44:33 11° 258° (WSW) 05:45:51 145.827
AO-85 17 Dec 05:43:24 05:46:57 20° 52° (NE) 05:50:38 145.980
CUTE-I 17 Dec 05:44:22 05:48:01 19° 95° (E) 05:51:38 437.470
BEESAT 2 17 Dec 05:48:37 05:52:37 71° 61° (ENE) 05:56:32 435.950
HO-68 17 Dec 06:00:09 06:03:25 13° 92° (E) 06:06:39 435.675
LilacSat-2 17 Dec 06:07:34 06:11:17 44° 99° (E) 06:14:59 437.200
NUDT-PHONESAT 17 Dec 06:09:58 06:13:12 27° 97° (E) 06:16:24 437.300
STRAND 1 17 Dec 06:10:32 06:14:08 20° 67° (ENE) 06:17:44 437.568
KKS-1 17 Dec 06:15:45 06:18:08 14° 266° (W) 06:20:32 437.445
XW-2D 17 Dec 06:17:50 06:21:39 59° 101° (E) 06:25:24 145.860 - 145.880
FO-29 17 Dec 06:18:05 06:21:07 13° 58° (ENE) 06:24:09 435.910
KAITUO 1B 17 Dec 06:18:40 06:22:14 38° 98° (E) 06:25:45 145.475/437.950
AO-7 17 Dec 06:22:34 06:26:15 14° 307° (NW) 06:29:56 .
SRMSAT 17 Dec 06:31:37 06:35:56 21° 174° (S) 06:40:17 437.500
XW-2B 17 Dec 06:33:48 06:37:39 86° 283° (WNW) 06:41:28 145.730 - 145.750
SEEDS 17 Dec 06:36:43 06:38:00 11° 92° (E) 06:39:16 437.485
XW-2F 17 Dec 06:43:17 06:47:06 67° 283° (WNW) 06:50:52 145.980 - 146.000
CUBEBUG 2 17 Dec 06:46:01 06:48:42 16° 95° (E) 06:51:25 437.445
STARS 17 Dec 06:50:15 06:52:45 15° 266° (W) 06:55:16 437.465
O/OREOS (USA 219) 17 Dec 06:56:32 06:59:13 16° 100° (E) 07:01:55 437.305
XW-2C 17 Dec 07:01:41 07:05:11 34° 286° (WNW) 07:08:40 145.795 - 145.815
CUTE 1.7 + AOD 2 17 Dec 07:02:58 07:07:04 44° 99° (E) 07:11:07 437.475
AO-85 17 Dec 07:22:46 07:27:33 48° 246° (WSW) 07:32:35 145.980
CUTE-I 17 Dec 07:23:10 07:28:11 43° 288° (WNW) 07:33:10 437.470
JUGNU 17 Dec 07:29:19 07:31:40 12° 195° (SSW) 07:34:02 437.505
AO-73 17 Dec 07:30:56 07:32:46 12° 93° (E) 07:34:36 145.935
XW-2A 17 Dec 07:32:48 07:35:19 19° 96° (E) 07:37:50 145.665 - 145.685
NUDT-PHONESAT 17 Dec 07:44:34 07:46:45 15° 290° (WNW) 07:48:56 437.300
HO-68 17 Dec 07:44:35 07:51:46 84° 285° (WNW) 07:58:55 435.675
LilacSat-2 17 Dec 07:44:39 07:45:05 10° 293° (WNW) 07:45:30 437.200
STRAND 1 17 Dec 07:48:10 07:52:58 40° 261° (W) 07:57:47 437.568
KAITUO 1B 17 Dec 07:54:40 07:55:46 11° 292° (WNW) 07:56:53 145.475/437.950
FO-29 17 Dec 07:57:07 08:04:47 72° 74° (ENE) 08:12:36 435.910
SEEDS 17 Dec 08:09:48 08:13:51 45° 286° (WNW) 08:17:52 437.485
UWE-3 17 Dec 08:14:24 08:18:47 81° 285° (WNW) 08:23:17 435.000/436.395/437.385
AAUSAT CUBESAT 2 17 Dec 08:19:22 08:23:32 90° 76° (ENE) 08:27:39 437.432
SRMSAT 17 Dec 08:20:06 08:24:30 21° 185° (S) 08:28:54 437.500
CUBEBUG 2 17 Dec 08:21:24 08:25:20 35° 286° (WNW) 08:29:23 437.445
ZACube-1 17 Dec 08:32:40 08:37:06 82° 103° (ESE) 08:41:36 437.345
O/OREOS (USA 219) 17 Dec 08:33:58 08:38:14 38° 293° (WNW) 08:42:32 437.305
CUTE 1.7 + AOD 2 17 Dec 08:40:34 08:42:27 13° 293° (WNW) 08:44:19 437.475
Oscar 11 17 Dec 08:47:12 08:51:33 65° 101° (ESE) 08:55:51 .
DELFI C3 17 Dec 08:55:20 08:56:31 11° 93° (E) 08:57:42 145.870
TIGRISAT 17 Dec 09:00:35 09:04:21 30° 72° (ENE) 09:08:04 435.000
UNISAT 6 17 Dec 09:04:28 09:08:26 38° 73° (ENE) 09:12:23 437.425
AO-73 17 Dec 09:04:54 09:09:08 47° 286° (WNW) 09:13:26 145.935
XW-2A 17 Dec 09:05:33 09:07:49 17° 289° (WNW) 09:10:06 145.665 - 145.685
ISS 17 Dec 09:25:44 09:28:15 21° 129° (SE) 09:30:47 437.550
HO-68 17 Dec 09:35:22 09:38:24 13° 303° (WNW) 09:41:26 435.675
FO-29 17 Dec 09:44:53 09:50:14 20° 269° (W) 09:55:41 435.910
Max Valier Satellite 17 Dec 09:59:16 10:02:56 54° 100° (E) 10:06:35 145.860
nSIGHT-1 17 Dec 10:08:10 10:11:21 77° 316° (NW) 10:14:34 .
AIST 2D 17 Dec 10:08:12 10:10:14 15° 70° (ENE) 10:12:17 435.315
SRMSAT 17 Dec 10:09:57 10:13:00 14° 194° (SSW) 10:16:04 437.500
EO-88 17 Dec 10:20:00 10:23:39 68° 101° (E) 10:27:16 145.990 - 145.960
PRISM 17 Dec 10:22:26 10:26:35 90° 225° (SW) 10:30:46 437.425
DELFI C3 17 Dec 10:27:43 10:31:23 38° 286° (WNW) 10:35:01 145.870
TIGRISAT 17 Dec 10:38:12 10:41:01 17° 265° (W) 10:43:50 435.000
EO-79 17 Dec 10:41:53 10:44:06 14° 68° (ENE) 10:46:19 145.935-145.965
LO-87 17 Dec 10:42:37 10:43:51 11° 94° (E) 10:45:06 145.935 - 145.965
UNISAT 6 17 Dec 10:43:03 10:45:15 14° 266° (W) 10:47:26 437.425
ISS 17 Dec 11:01:44 11:04:36 27° 323° (NW) 11:07:29 437.550
POLYITAN 1 17 Dec 11:04:20 11:07:48 26° 71° (ENE) 11:11:18 437.675
ESTCUBE 1 17 Dec 11:22:18 11:26:23 32° 98° (E) 11:30:25 437.505/2401.250
QB50P2 17 Dec 11:29:33 11:33:41 63° 76° (ENE) 11:37:50 145.880/145.840
DUCHIFAT 1 17 Dec 11:29:47 11:33:40 40° 73° (ENE) 11:37:34 145.980
AIST 2D 17 Dec 11:40:19 11:43:09 23° 264° (W) 11:46:00 435.315
NANOSAT C BR1 17 Dec 11:57:46 12:01:55 74° 258° (WSW) 12:06:06 145.865
BUGSAT 1 17 Dec 11:59:07 12:01:52 18° 70° (ENE) 12:04:37 437.445
NO-84 17 Dec 12:10:22 12:12:02 12° 36° (NE) 12:13:46 435.350 FM
LO-87 17 Dec 12:14:10 12:17:17 29° 286° (WNW) 12:20:24 145.935 - 145.965
Oscar 19 17 Dec 12:14:25 12:18:00 19° 67° (ENE) 12:21:35 437.125/150
EO-79 17 Dec 12:15:36 12:19:29 37° 261° (W) 12:23:23 145.935-145.965
YUBILEINY 17 Dec 12:36:03 12:40:11 14° 66° (ENE) 12:44:17 435.215
POLYITAN 1 17 Dec 12:40:29 12:43:30 19° 265° (W) 12:46:32 437.675
VELOX 1 17 Dec 12:41:53 12:45:49 32° 98° (E) 12:49:44 145.980
SPROUT 17 Dec 12:57:41 13:01:55 84° 284° (WNW) 13:06:10 437.525
ESTCUBE 1 17 Dec 12:59:43 13:02:54 19° 291° (WNW) 13:06:03 437.505/2401.250
DUCHIFAT 1 17 Dec 13:07:42 13:09:27 12° 267° (W) 13:11:12 145.980
AO-91 17 Dec 13:09:54 13:14:50 73° 77° (ENE) 13:19:16 145.960
Gurwin Techsat 1B 17 Dec 13:19:45 13:25:00 65° 74° (ENE) 13:30:16 435.225
RS-15 17 Dec 13:27:01 13:38:30 49° 108° (ESE) 13:50:01 29.354- 29.394
DX 1 17 Dec 13:28:01 13:31:14 20° 96° (E) 13:34:27 434.975-435.025
AO-7 17 Dec 13:31:17 13:36:56 21° 57° (ENE) 13:42:36 .
BUGSAT 1 17 Dec 13:33:35 13:37:00 26° 263° (W) 13:40:25 437.445
NO-84 17 Dec 13:45:47 13:49:40 82° 229° (SW) 13:53:46 435.350 FM
Oscar 19 17 Dec 13:52:08 13:56:57 41° 261° (W) 14:01:49 437.125/150
50 SAT 17 Dec 13:54:30 13:57:31 42° 100° (E) 14:00:30 437.505
M-CUBED/EXP-1 PRIME 17 Dec 14:12:12 14:15:14 19° 63° (ENE) 14:18:22 437.505
VELOX 1 17 Dec 14:19:01 14:21:59 18° 292° (WNW) 14:24:55 145.980
YUBILEINY 17 Dec 14:29:21 14:38:13 85° 84° (E) 14:46:59 435.215
UKube-1 17 Dec 14:40:23 14:44:43 88° 278° (W) 14:49:00 .
SO-50 17 Dec 14:40:52 14:45:19 82° 118° (ESE) 14:49:48 436.795
ITUPSAT 1 17 Dec 14:51:12 14:53:47 14° 94° (E) 14:56:22 437.325
Gurwin Techsat 1B 17 Dec 15:03:15 15:05:18 12° 268° (W) 15:07:21 435.225
DX 1 17 Dec 15:03:42 15:07:22 27° 289° (WNW) 15:10:59 434.975-435.025
MOZHAYETS 4 17 Dec 15:06:46 15:11:01 35° 98° (E) 15:15:15
ITAMSAT 1 17 Dec 15:11:01 15:16:06 55° 73° (ENE) 15:21:10 435.822/435.867
AO-7 17 Dec 15:20:28 15:28:45 78° 253° (WSW) 15:37:07 .
RS-15 17 Dec 15:39:17 15:50:58 48° 308° (NW) 16:02:40 29.354- 29.394
M-CUBED/EXP-1 PRIME 17 Dec 15:45:17 15:49:14 36° 258° (WSW) 15:53:25 437.505
BEESAT 17 Dec 15:56:23 16:01:10 83° 103° (ESE) 16:05:56 436.000
SO-50 17 Dec 16:25:39 16:26:20 10° 314° (NW) 16:26:59 436.795
ITUPSAT 1 17 Dec 16:27:12 16:31:46 46° 287° (WNW) 16:36:20 437.325
YUBILEINY 17 Dec 16:29:13 16:33:45 15° 281° (W) 16:38:16 435.215
DOVE 4 17 Dec 16:34:44 16:40:00 74° 76° (ENE) 16:45:07 437.250
KKS-1 17 Dec 16:35:08 16:35:53 10° 93° (E) 16:36:37 437.445
CUBESAT XI-V 17 Dec 16:38:37 16:43:21 86° 101° (E) 16:48:02 437.345
nSIGHT-1 17 Dec 16:38:47 16:41:02 17° 33° (NNE) 16:43:17 .
MOZHAYETS 4 17 Dec 16:44:42 16:47:52 18° 292° (WNW) 16:51:00
LilacSat-2 17 Dec 16:47:00 16:48:41 13° 68° (ENE) 16:50:23 437.200
KAITUO 1B 17 Dec 16:57:19 16:57:39 10° 68° (ENE) 16:57:59 145.475/437.950
